Regional Weather Roundup
Issued by NWS Jackson, KY

Home | Current Version | Previous Version | Text Only | Print | Product List | Glossary On
Versions: 1 2 3 4 5 6 7 8 9 10 11 12 13 14 15 16 17 18 19 20 21 22 23 24 25 26 27 28 29 30 31 32 33 34 35 36 37 38 39 40 41 42 43 44 45 46 47 48 49 50
000
ASUS43 KJKL 280310
RWRJKL

EAST KENTUCKY HOURLY WEATHER ROUNDUP
NATIONAL WEATHER SERVICE JACKSON KY
1100 PM EDT MON JUL 27 2015

NOTE: "FAIR" INDICATES FEW OR NO CLOUDS BELOW 12,000 FEET WITH
NO SIGNIFICANT WEATHER AND/OR OBSTRUCTIONS TO VISIBILITY.

* THESE REPORTS ARE NOT UNDER NWS QUALITY CONTROL AND MAY NOT
  REPORT WEATHER SUCH AS PRECIPITATION AND FOG.

KYZ079-080-083-085-087-088-110-112-115-119-120-280400
...EASTERN KENTUCKY...

CITY           SKY/WX    TMP DP  RH WIND       PRES   REMARKS
JACKSON        PTCLDY    75  72  90 CALM      30.03R
LONDON         CLEAR     74  70  87 CALM      30.04R
SOMERSET*      CLEAR     73  73 100 CALM      30.03R
MONTICELLO*    PTCLDY    75  75 100 CALM      30.05R FOG
MIDDLESBORO*   MOCLDY    73  72  98 CALM      30.05S
HAZARD APT*    CLEAR     75  75 100 SW3       30.03R FOG
BLACK MTN*       N/A     68  68 100 S2          N/A
PIKEVILLE APT* CLEAR     75  73  94 N3        30.04R
BIG SANDY*     MOCLDY    73  70  92 CALM      30.03R
MOREHEAD APT*  MOCLDY    73  70  88 E5        30.03S
$$

KYZ035-036-041-042-044-050-067-078-099-280400
...CENTRAL KENTUCKY...

CITY           SKY/WX    TMP DP  RH WIND       PRES   REMARKS
MT STERLING*   CLOUDY    75  73  94 SE3       30.04R
FLEMING/MASON* CLEAR     73  72  94 CALM      30.03R
DANVILLE*      CLEAR     73  72  94 CALM      30.03R
RICHMOND*      PTCLDY    75  72  88 CALM      30.02R
LEXINGTON      CLEAR     78  73  84 CALM      30.01R
FRANKFORT      PTCLDY    78  73  84 CALM      29.99R
$$

KYZ091>093-OHZ055-061-077-WVZ005-015-034-035-042-280400
...SOUTHERN OHIO/WEST VIRGINIA...

CITY           SKY/WX    TMP DP  RH WIND       PRES   REMARKS
COVINGTON      MOCLDY    79  71  76 E8        30.01R
COLUMBUS       MOCLDY    76  64  66 CALM      30.01R
DAYTON         MOCLDY    75  71  87 NE7       30.03R
WILMINGTON     CLOUDY    75  72  90 CALM      30.02R
HUNTINGTON     PTCLDY    74  73  97 CALM      30.01R
CHARLESTON     MOCLDY    72  70  93 CALM      30.01R
PINEVILLE*     PTCLDY    71  71 100 MISG      30.10S FOG
BECKLEY        PTCLDY    72  68  87 CALM      30.10R
BLUEFIELD      PTCLDY    74  67  78 CALM      30.13R
$$

VAZ002-007-008-TNZ017-027-036-066-071-280400
...SOUTHWEST VIRGINIA/EAST TENNESSEE...

CITY           SKY/WX    TMP DP  RH WIND       PRES   REMARKS
WISE*          PTCLDY    72  72 100 SW3       30.13R FOG
ABINGDON*      CLOUDY    73  69  87 CALM      30.09R
BRISTOL        MOCLDY    74  71  91 CALM      30.05R
KNOXVILLE      MOCLDY    81  72  74 NE6       30.01R
OAK RIDGE      MOCLDY    79  72  79 VRB3      30.03R
CROSSVILLE     PTCLDY    76  71  85 CALM      30.08R
NASHVILLE      MOCLDY    84  74  71 N7        29.99R HX  91
$$

...KEY TO REMARKS...
VSB - VISIBILITY IN MILES
WCI - WIND CHILL INDEX
HX  - HEAT INDEX

$$


USA.gov is the U.S. government's official web portal to all federal, state and local government web resources and services.